Total_Precipitation_Accumulation
0.14 0.16 0.19 0.22 0.22 0.22 0.25 0.31 0.34 0.42 0.50 0.58 0.73 0.95 1.22 1.33 1.43 1.39 1.21 1.16 1.28 1.52 1.72 1.68 1.71 1.72 1.57 1.50 1.57 1.72 1.65 1.37 1.13 1.08 0.90 0.74 0.60 0.65 0.62 0.58 0.58 0.57 0.60
0.10 0.09 0.10 0.13 0.15 0.15 0.17 0.22 0.30 0.39 0.48 0.57 0.75 0.91 1.06 1.07 1.24 1.40 1.38 1.30 1.29 1.43 1.57 1.81 1.88 1.79 1.78 1.89 1.93 2.19 2.29 1.87 1.47 1.41 1.46 1.17 0.96 0.70 0.53 0.54 0.53 0.56 0.73
0.09 0.07 0.07 0.08 0.09 0.10 0.12 0.15 0.22 0.32 0.45 0.61 0.85 1.07 1.26 1.34 1.41 1.34 1.43 1.44 1.37 1.41 1.50 1.66 1.80 1.79 1.85 1.90 2.01 2.33 2.71 2.44 1.96 1.74 1.85 1.51 1.31 1.13 0.70 0.51 0.51 0.57 0.72
0.10 0.08 0.06 0.07 0.07 0.08 0.09 0.12 0.20 0.35 0.56 0.78 1.04 1.30 1.50 1.54 1.43 1.48 1.51 1.39 1.33 1.30 1.37 1.50 1.63 1.73 1.75 1.86 1.93 2.04 2.47 2.73 2.42 2.16 1.82 1.48 1.35 1.39 1.15 0.75 0.62 0.67 0.70
0.14 0.12 0.11 0.12 0.13 0.14 0.16 0.23 0.43 0.68 0.93 1.14 1.41 1.70 1.70 1.59 1.50 1.50 1.47 1.42 1.43 1.40 1.39 1.52 1.58 1.59 1.65 1.74 2.03 2.27 2.51 2.65 2.56 2.46 2.29 2.05 1.72 1.31 1.34 1.26 0.97 0.84 0.77
0.22 0.27 0.31 0.37 0.41 0.44 0.58 0.79 1.05 1.24 1.33 1.46 1.61 1.73 1.71 1.72 1.67 1.49 1.39 1.39 1.43 1.49 1.53 1.59 1.58 1.54 1.57 1.66 1.86 2.12 2.33 2.59 2.72 2.60 2.40 2.25 2.04 1.75 1.57 1.35 1.24 1.17 0.96
0.34 0.45 0.61 0.74 0.84 0.96 1.08 1.22 1.42 1.56 1.50 1.47 1.52 1.56 1.57 1.57 1.56 1.50 1.40 1.35 1.35 1.37 1.41 1.52 1.63 1.70 1.71 1.81 1.95 2.09 2.00 2.21 2.53 2.49 2.34 2.24 1.98 1.91 1.90 1.70 1.44 1.27 0.97
0.52 0.63 0.72 0.83 1.00 1.14 1.19 1.19 1.30 1.40 1.36 1.33 1.31 1.28 1.34 1.37 1.34 1.26 1.25 1.28 1.35 1.33 1.27 1.32 1.42 1.56 1.70 1.74 1.78 1.79 1.73 1.85 2.05 2.11 2.29 2.38 2.12 1.93 1.78 1.66 1.65 1.40 1.15
0.79 0.94 1.04 1.17 1.21 1.25 1.30 1.22 1.21 1.25 1.25 1.17 1.09 1.09 1.15 1.20 1.23 1.18 1.19 1.17 1.16 1.09 1.02 1.02 1.06 1.13 1.20 1.26 1.42 1.52 1.60 1.61 1.72 1.84 1.98 2.14 2.24 2.15 1.89 1.77 1.70 1.59 1.38
1.03 1.32 1.57 1.74 1.57 1.30 1.18 1.13 1.06 1.06 1.14 1.11 1.04 1.01 1.10 1.11 1.10 1.13 1.10 1.10 1.09 1.00 0.93 0.89 0.85 0.81 0.78 0.81 1.00 1.19 1.30 1.40 1.54 1.69 1.80 1.83 1.91 2.10 2.07 1.87 1.80 1.68 1.48
1.19 1.34 1.53 1.70 1.60 1.28 1.05 1.05 1.06 1.01 0.99 0.99 1.01 1.00 0.99 0.90 0.89 0.94 0.95 0.94 0.95 0.98 0.96 0.88 0.82 0.89 0.87 0.82 0.88 0.94 1.00 1.08 1.21 1.34 1.44 1.57 1.84 2.15 2.18 2.13 1.99 1.83 1.63
1.10 1.09 1.13 1.20 1.21 1.06 0.87 0.83 0.96 1.01 0.95 0.92 0.95 0.94 0.85 0.81 0.77 0.76 0.73 0.66 0.64 0.67 0.75 0.83 0.78 0.77 0.79 0.80 0.86 0.88 0.92 0.94 1.02 1.10 1.21 1.34 1.64 2.01 2.23 2.32 2.21 2.04 1.86
1.07 1.03 0.95 0.88 0.91 0.88 0.80 0.76 0.89 1.03 1.05 1.00 0.86 0.78 0.74 0.71 0.69 0.61 0.57 0.55 0.50 0.50 0.54 0.63 0.64 0.72 0.79 0.81 0.83 0.85 0.87 0.90 0.99 1.12 1.16 1.19 1.35 1.56 1.80 2.00 2.11 2.10 2.07
0.77 0.71 0.66 0.61 0.60 0.63 0.67 0.73 0.83 0.90 1.02 1.11 1.01 0.86 0.77 0.70 0.64 0.57 0.54 0.51 0.49 0.52 0.58 0.70 0.74 0.69 0.67 0.71 0.82 0.86 0.80 0.79 0.85 0.94 1.02 1.09 1.11 1.23 1.40 1.54 1.73 1.93 2.14
0.38 0.37 0.36 0.34 0.33 0.33 0.34 0.43 0.55 0.70 0.89 1.09 1.07 0.92 0.86 0.78 0.65 0.60 0.60 0.58 0.61 0.57 0.59 0.70 0.80 0.87 0.82 0.79 0.87 0.84 0.82 0.83 0.81 0.86 0.86 0.91 0.93 0.94 1.10 1.17 1.40 1.72 1.97
0.25 0.24 0.22 0.20 0.16 0.14 0.16 0.17 0.25 0.42 0.59 0.75 0.81 0.77 0.69 0.61 0.58 0.57 0.55 0.52 0.51 0.47 0.47 0.51 0.58 0.67 0.72 0.92 0.87 0.71 0.69 0.74 0.80 0.85 0.84 0.85 0.80 0.76 0.78 0.89 1.03 1.33 1.54
0.19 0.18 0.19 0.18 0.17 0.16 0.14 0.14 0.17 0.24 0.35 0.47 0.56 0.55 0.49 0.43 0.40 0.45 0.45 0.43 0.39 0.40 0.38 0.37 0.37 0.44 0.59 0.67 0.51 0.49 0.56 0.69 0.80 0.86 0.88 0.84 0.80 0.83 0.82 0.78 0.78 0.87 1.06
0.18 0.17 0.16 0.15 0.13 0.12 0.11 0.11 0.14 0.17 0.18 0.22 0.26 0.27 0.28 0.27 0.29 0.31 0.32 0.33 0.32 0.30 0.29 0.36 0.44 0.46 0.47 0.52 0.42 0.42 0.53 0.72 0.84 0.83 0.78 0.84 0.85 0.88 0.93 0.83 0.84 0.80 0.81
0.09 0.08 0.07 0.06 0.05 0.04 0.04 0.04 0.05 0.05 0.05 0.06 0.08 0.10 0.12 0.14 0.17 0.18 0.21 0.30 0.33 0.34 0.37 0.48 0.56 0.49 0.41 0.45 0.45 0.51 0.67 0.79 0.87 0.83 0.82 0.89 0.90 1.03 1.05 0.95 0.98 0.92 0.87
0.02 0.02 0.01 0.01 0.01 0.00 0.00 0.00 0.00 0.00 0.00 0.00 0.00 0.01 0.01 0.02 0.05 0.08 0.11 0.17 0.24 0.31 0.38 0.40 0.38 0.38 0.44 0.49 0.48 0.60 0.79 0.91 1.01 0.96 0.95 1.13 1.06 1.01 0.94 0.90 1.04 1.01 0.85
0.00 0.00 0.00 0.00 0.00 0.00 0.00 0.00 0.00 0.00 0.00 0.00 0.00 0.00 0.00 0.00 0.01 0.02 0.03 0.06 0.11 0.15 0.17 0.19 0.22 0.29 0.45 0.51 0.52 0.72 0.81 0.87 1.02 1.05 1.01 0.94 1.04 0.96 0.87 0.85 0.90 1.03 0.89
0.00 0.00 0.00 0.00 0.00 0.00 0.00 0.00 0.00 0.00 0.00 0.00 0.00 0.00 0.00 0.00 0.01 0.01 0.02 0.02 0.04 0.06 0.10 0.12 0.16 0.22 0.30 0.37 0.43 0.56 0.68 0.75 0.93 1.01 0.92 0.81 1.02 0.96 0.85 0.77 0.78 0.90 0.95
0.00 0.00 0.00 0.00 0.00 0.00 0.00 0.00 0.00 0.00 0.00 0.00 0.00 0.00 0.00 0.01 0.01 0.01 0.01 0.02 0.03 0.06 0.07 0.11 0.17 0.23 0.27 0.28 0.34 0.42 0.50 0.62 0.80 0.86 0.87 0.88 0.90 0.81 0.76 0.84 0.85 0.86 0.88
0.00 0.00 0.00 0.00 0.00 0.00 0.00 0.00 0.00 0.00 0.00 0.00 0.00 0.00 0.01 0.01 0.01 0.01 0.02 0.02 0.02 0.05 0.08 0.15 0.21 0.25 0.27 0.28 0.34 0.42 0.46 0.56 0.64 0.66 0.70 0.74 0.70 0.69 0.72 0.78 0.86 0.88 0.91
0.00 0.00 0.00 0.00 0.00 0.00 0.00 0.00 0.00 0.00 0.00 0.00 0.00 0.00 0.01 0.01 0.01 0.01 0.01 0.02 0.02 0.04 0.10 0.14 0.17 0.18 0.20 0.23 0.30 0.41 0.49 0.60 0.70 0.71 0.66 0.68 0.68 0.67 0.66 0.69 0.71 0.73 0.71
0.00 0.00 0.00 0.00 0.00 0.00 0.00 0.00 0.00 0.00 0.00 0.00 0.00 0.00 0.01 0.01 0.02 0.02 0.02 0.01 0.01 0.02 0.04 0.05 0.08 0.14 0.17 0.13 0.15 0.24 0.38 0.54 0.74 0.95 0.98 0.99 0.93 0.83 0.72 0.62 0.54 0.50 0.52